PDT1303 KCHA-KCLT

Flight info

Callsign PDT1303
Flight time 0h 48m
Altitude 27000
Route VXV COMDY FLIPZ4
Aircraft E145/L-VGDW/C

Departure

Time 2026-04-19 23:10
Airport Chattanooga Metropolitan Airport (Lovell Field) (KCHA)

Arrival

Time 2026-04-19 23:59
Airport Charlotte Douglas International Airport (KCLT)
Time Latitude Longitude Altitude Speed Heading
2026-04-19 22:46 35.03780 -85.19859 674 ft 0 kts 113°
2026-04-19 23:01 35.03780 -85.19858 675 ft 0 kts 113°
2026-04-19 23:02 35.03783 -85.19866 674 ft 2 kts 113°
2026-04-19 23:02 35.03792 -85.19879 674 ft 2 kts 167°
2026-04-19 23:02 35.03804 -85.19878 674 ft 1 kts 207°
2026-04-19 23:03 35.03806 -85.19877 674 ft 0 kts 206°
2026-04-19 23:05 35.03784 -85.19907 673 ft 7 kts 231°
2026-04-19 23:06 35.03729 -85.19955 672 ft 11 kts 198°
2026-04-19 23:06 35.03640 -85.19986 672 ft 14 kts 198°
2026-04-19 23:06 35.03536 -85.20026 674 ft 16 kts 198°
2026-04-19 23:06 35.03418 -85.20069 673 ft 19 kts 197°
2026-04-19 23:07 35.03285 -85.20123 676 ft 20 kts 210°
2026-04-19 23:07 35.03194 -85.20260 677 ft 17 kts 219°
2026-04-19 23:07 35.03107 -85.20303 678 ft 12 kts 199°
2026-04-19 23:07 35.03013 -85.20342 678 ft 15 kts 195°
2026-04-19 23:08 35.02895 -85.20380 676 ft 19 kts 197°
2026-04-19 23:08 35.02750 -85.20435 674 ft 23 kts 196°
2026-04-19 23:08 35.02589 -85.20492 674 ft 25 kts 196°
2026-04-19 23:08 35.02423 -85.20554 673 ft 23 kts 196°
2026-04-19 23:09 35.02315 -85.20593 673 ft 8 kts 195°
2026-04-19 23:09 35.02257 -85.20629 672 ft 7 kts 228°
2026-04-19 23:09 35.02263 -85.20702 671 ft 11 kts 290°
2026-04-19 23:09 35.02306 -85.20734 670 ft 7 kts 13°
2026-04-19 23:10 35.02480 -85.20672 671 ft 63 kts 17°
2026-04-19 23:10 35.03171 -85.20422 677 ft 137 kts 17°
2026-04-19 23:10 35.04180 -85.20009 1081 ft 166 kts 18°
2026-04-19 23:10 35.05280 -85.19479 2047 ft 173 kts 18°
2026-04-19 23:11 35.06443 -85.18877 2614 ft 208 kts 19°
2026-04-19 23:11 35.07878 -85.18163 3243 ft 234 kts 19°
2026-04-19 23:11 35.09376 -85.17415 4363 ft 235 kts 19°
2026-04-19 23:11 35.10926 -85.16628 4972 ft 257 kts 19°
2026-04-19 23:12 35.12496 -85.15712 5430 ft 252 kts 32°
2026-04-19 23:12 35.13571 -85.13954 6279 ft 268 kts 62°
2026-04-19 23:12 35.14449 -85.12054 7385 ft 259 kts 48°
2026-04-19 23:12 35.15542 -85.10278 8219 ft 267 kts 47°
2026-04-19 23:13 35.16672 -85.08472 9045 ft 274 kts 46°
2026-04-19 23:13 35.17854 -85.06597 9868 ft 284 kts 46°
2026-04-19 23:13 35.19126 -85.04584 9997 ft 319 kts 46°
2026-04-19 23:13 35.20550 -85.02322 10003 ft 348 kts 47°
2026-04-19 23:14 35.22051 -84.99934 9972 ft 353 kts 47°
2026-04-19 23:14 35.23550 -84.97549 10000 ft 355 kts 47°
2026-04-19 23:14 35.25048 -84.95167 9977 ft 357 kts 47°
2026-04-19 23:14 35.26557 -84.92764 9985 ft 352 kts 47°
2026-04-19 23:15 35.28051 -84.90395 9997 ft 348 kts 46°
2026-04-19 23:15 35.29315 -84.87940 11042 ft 337 kts 58°
2026-04-19 23:15 35.30380 -84.85558 12462 ft 321 kts 54°
2026-04-19 23:15 35.31477 -84.83061 12769 ft 344 kts 56°
2026-04-19 23:16 35.32603 -84.80460 13362 ft 355 kts 56°
2026-04-19 23:16 35.33780 -84.77742 13869 ft 369 kts 56°
2026-04-19 23:16 35.35000 -84.74919 14477 ft 378 kts 56°
2026-04-19 23:16 35.36233 -84.72070 15148 ft 384 kts 56°
2026-04-19 23:17 35.37479 -84.69183 15888 ft 388 kts 56°
2026-04-19 23:17 35.38755 -84.66226 16588 ft 393 kts 56°
2026-04-19 23:17 35.40033 -84.63260 17247 ft 399 kts 56°
2026-04-19 23:17 35.41346 -84.60211 17909 ft 404 kts 56°
2026-04-19 23:18 35.42643 -84.57196 18622 ft 407 kts 56°
2026-04-19 23:18 35.43958 -84.54136 19309 ft 410 kts 56°
2026-04-19 23:18 35.45297 -84.51017 20067 ft 410 kts 56°
2026-04-19 23:18 35.46618 -84.47938 20798 ft 411 kts 56°
2026-04-19 23:19 35.47945 -84.44842 21531 ft 412 kts 56°
2026-04-19 23:19 35.49280 -84.41724 22194 ft 415 kts 56°
2026-04-19 23:19 35.50625 -84.38580 22881 ft 417 kts 56°
2026-04-19 23:19 35.51966 -84.35443 23622 ft 416 kts 56°
2026-04-19 23:20 35.53301 -84.32320 24230 ft 419 kts 57°
2026-04-19 23:20 35.54668 -84.29113 24825 ft 423 kts 57°
2026-04-19 23:20 35.56023 -84.25933 25454 ft 424 kts 56°
2026-04-19 23:20 35.57391 -84.22721 26054 ft 426 kts 57°
2026-04-19 23:21 35.58755 -84.19513 26678 ft 427 kts 57°
2026-04-19 23:21 35.60134 -84.16270 27182 ft 432 kts 57°
2026-04-19 23:21 35.61544 -84.12953 27231 ft 450 kts 57°
2026-04-19 23:21 35.63015 -84.09483 27239 ft 465 kts 57°
2026-04-19 23:22 35.64531 -84.05904 27240 ft 478 kts 57°
2026-04-19 23:22 35.66082 -84.02238 27243 ft 491 kts 58°
2026-04-19 23:22 35.67672 -83.98477 27238 ft 502 kts 58°
2026-04-19 23:22 35.69308 -83.94601 27233 ft 513 kts 58°
2026-04-19 23:23 35.70955 -83.90694 27240 ft 522 kts 58°
2026-04-19 23:23 35.72626 -83.86726 27238 ft 527 kts 58°
2026-04-19 23:23 35.74322 -83.82694 27242 ft 526 kts 58°
2026-04-19 23:23 35.75997 -83.78707 27234 ft 525 kts 58°
2026-04-19 23:24 35.77654 -83.74762 27241 ft 523 kts 58°
2026-04-19 23:24 35.79334 -83.70753 27238 ft 522 kts 58°
2026-04-19 23:24 35.80981 -83.66819 27237 ft 514 kts 58°
2026-04-19 23:24 35.82559 -83.63037 27219 ft 482 kts 58°
2026-04-19 23:25 35.84072 -83.59422 27239 ft 479 kts 57°
2026-04-19 23:25 35.85597 -83.55744 27240 ft 483 kts 59°
2026-04-19 23:25 35.86856 -83.51831 27254 ft 496 kts 69°
2026-04-19 23:25 35.87665 -83.47657 27250 ft 510 kts 79°
2026-04-19 23:26 35.88070 -83.43265 27254 ft 521 kts 85°
2026-04-19 23:26 35.88099 -83.38781 27247 ft 530 kts 94°
2026-04-19 23:26 35.87630 -83.34250 27237 ft 537 kts 104°
2026-04-19 23:26 35.86673 -83.29821 27236 ft 537 kts 113°
2026-04-19 23:27 35.85259 -83.25616 27230 ft 528 kts 121°
2026-04-19 23:27 35.83774 -83.21461 27214 ft 527 kts 115°
2026-04-19 23:27 35.82736 -83.17157 27227 ft 525 kts 108°
2026-04-19 23:27 35.81810 -83.12819 27218 ft 521 kts 108°
2026-04-19 23:28 35.80879 -83.08581 27215 ft 517 kts 109°
2026-04-19 23:28 35.79924 -83.04279 27198 ft 517 kts 109°
2026-04-19 23:28 35.78972 -83.00001 27211 ft 521 kts 109°
2026-04-19 23:28 35.78013 -82.95702 27209 ft 526 kts 109°
2026-04-19 23:29 35.77045 -82.91366 27210 ft 530 kts 109°
2026-04-19 23:29 35.76065 -82.86990 27210 ft 533 kts 109°
2026-04-19 23:29 35.75102 -82.82685 27208 ft 504 kts 109°
2026-04-19 23:29 35.74194 -82.78643 27193 ft 478 kts 109°
2026-04-19 23:30 35.73311 -82.74723 27206 ft 476 kts 109°
2026-04-19 23:30 35.72425 -82.70799 27207 ft 477 kts 109°
2026-04-19 23:30 35.71543 -82.66911 27203 ft 479 kts 109°
2026-04-19 23:30 35.70639 -82.62937 27209 ft 480 kts 110°
2026-04-19 23:31 35.69743 -82.59006 27206 ft 480 kts 109°
2026-04-19 23:31 35.68845 -82.55072 27204 ft 479 kts 109°
2026-04-19 23:31 35.67946 -82.51139 27198 ft 478 kts 110°
2026-04-19 23:31 35.67049 -82.47225 27199 ft 476 kts 110°
2026-04-19 23:32 35.66145 -82.43285 27193 ft 476 kts 110°
2026-04-19 23:32 35.65244 -82.39363 27199 ft 476 kts 110°
2026-04-19 23:32 35.64353 -82.35494 27189 ft 476 kts 109°
2026-04-19 23:32 35.63440 -82.31534 27170 ft 476 kts 110°
2026-04-19 23:33 35.62544 -82.27653 27158 ft 475 kts 110°
2026-04-19 23:33 35.61637 -82.23737 27149 ft 476 kts 110°
2026-04-19 23:33 35.60738 -82.19859 26649 ft 474 kts 110°
2026-04-19 23:33 35.59843 -82.16006 26146 ft 467 kts 110°
2026-04-19 23:34 35.58955 -82.12184 25643 ft 462 kts 110°
2026-04-19 23:34 35.58084 -82.08452 25090 ft 459 kts 109°
2026-04-19 23:34 35.57053 -82.04780 24524 ft 452 kts 118°
2026-04-19 23:34 35.55785 -82.01262 23967 ft 448 kts 118°
2026-04-19 23:35 35.54549 -81.97830 23415 ft 445 kts 117°
2026-04-19 23:35 35.53288 -81.94340 22854 ft 441 kts 117°
2026-04-19 23:35 35.52060 -81.90943 22300 ft 437 kts 117°
2026-04-19 23:35 35.50841 -81.87579 21814 ft 432 kts 117°
2026-04-19 23:36 35.49631 -81.84238 21222 ft 418 kts 117°
2026-04-19 23:36 35.48495 -81.81107 20692 ft 393 kts 117°
2026-04-19 23:36 35.47408 -81.78114 20196 ft 375 kts 117°
2026-04-19 23:36 35.46326 -81.75143 19851 ft 384 kts 116°
2026-04-19 23:37 35.45238 -81.72156 19457 ft 392 kts 116°
2026-04-19 23:37 35.44122 -81.69093 19023 ft 394 kts 116°
2026-04-19 23:37 35.43149 -81.65991 18501 ft 380 kts 109°
2026-04-19 23:37 35.42317 -81.62966 18041 ft 374 kts 110°
2026-04-19 23:38 35.41482 -81.59991 17436 ft 367 kts 110°
2026-04-19 23:38 35.40657 -81.57069 16673 ft 357 kts 110°
2026-04-19 23:38 35.39855 -81.54233 16103 ft 356 kts 110°
2026-04-19 23:38 35.39038 -81.51346 15467 ft 358 kts 110°
2026-04-19 23:39 35.38234 -81.48505 14792 ft 353 kts 110°
2026-04-19 23:39 35.37439 -81.45698 14231 ft 351 kts 110°
2026-04-19 23:39 35.36646 -81.42897 13753 ft 347 kts 110°
2026-04-19 23:39 35.35858 -81.40124 13313 ft 342 kts 110°
2026-04-19 23:40 35.35080 -81.37383 12908 ft 337 kts 110°
2026-04-19 23:40 35.34312 -81.34685 12499 ft 336 kts 110°
2026-04-19 23:40 35.33546 -81.31992 12058 ft 336 kts 109°
2026-04-19 23:40 35.32779 -81.29303 11594 ft 334 kts 109°
2026-04-19 23:41 35.32025 -81.26659 11166 ft 331 kts 108°
2026-04-19 23:41 35.31263 -81.23989 10743 ft 327 kts 108°
2026-04-19 23:41 35.30518 -81.21378 10318 ft 324 kts 108°
2026-04-19 23:41 35.29787 -81.18816 10052 ft 315 kts 107°
2026-04-19 23:42 35.29087 -81.16365 10027 ft 298 kts 108°
2026-04-19 23:42 35.28419 -81.14030 10022 ft 283 kts 108°
2026-04-19 23:42 35.27783 -81.11807 10025 ft 274 kts 107°
2026-04-19 23:42 35.27142 -81.09639 10026 ft 269 kts 114°
2026-04-19 23:43 35.25973 -81.07899 10053 ft 267 kts 150°
2026-04-19 23:43 35.24250 -81.07091 10065 ft 264 kts 180°
2026-04-19 23:43 35.22405 -81.06928 10049 ft 271 kts 181°
2026-04-19 23:43 35.20497 -81.06753 10039 ft 274 kts 182°
2026-04-19 23:44 35.18587 -81.06583 10034 ft 275 kts 181°
2026-04-19 23:44 35.16693 -81.06414 10036 ft 274 kts 181°
2026-04-19 23:44 35.14793 -81.06245 10034 ft 270 kts 182°
2026-04-19 23:44 35.12925 -81.06079 10031 ft 267 kts 182°
2026-04-19 23:45 35.11070 -81.05915 10031 ft 264 kts 182°
2026-04-19 23:45 35.09258 -81.05754 10030 ft 261 kts 182°
2026-04-19 23:45 35.07450 -81.05595 10034 ft 261 kts 182°
2026-04-19 23:45 35.05628 -81.05425 10034 ft 261 kts 181°
2026-04-19 23:46 35.03788 -81.05240 10032 ft 263 kts 180°
2026-04-19 23:46 35.01972 -81.05028 10035 ft 264 kts 180°
2026-04-19 23:46 35.00127 -81.04815 10038 ft 266 kts 180°
2026-04-19 23:46 34.98297 -81.04600 10036 ft 266 kts 180°
2026-04-19 23:47 34.96440 -81.04378 10032 ft 265 kts 180°
2026-04-19 23:47 34.94609 -81.04162 10039 ft 265 kts 180°
2026-04-19 23:47 34.92767 -81.03951 10010 ft 262 kts 180°
2026-04-19 23:47 34.90951 -81.03741 9707 ft 262 kts 180°
2026-04-19 23:48 34.89133 -81.03548 9385 ft 263 kts 180°
2026-04-19 23:48 34.87323 -81.03369 9118 ft 261 kts 180°
2026-04-19 23:48 34.85513 -81.03195 8743 ft 257 kts 180°
2026-04-19 23:48 34.83736 -81.03042 8177 ft 257 kts 180°
2026-04-19 23:49 34.81974 -81.02898 7637 ft 256 kts 175°
2026-04-19 23:49 34.80328 -81.02090 7090 ft 257 kts 139°
2026-04-19 23:49 34.79312 -81.00379 6565 ft 248 kts 103°
2026-04-19 23:49 34.79240 -80.98398 6085 ft 232 kts 68°
2026-04-19 23:50 34.80063 -80.96841 5594 ft 216 kts 32°
2026-04-19 23:50 34.81356 -80.95970 5092 ft 211 kts 22°
2026-04-19 23:50 34.82681 -80.95221 4609 ft 209 kts 22°
2026-04-19 23:50 34.83987 -80.94496 4201 ft 209 kts 22°
2026-04-19 23:51 34.85309 -80.93773 4049 ft 207 kts 22°
2026-04-19 23:51 34.86616 -80.93063 4028 ft 202 kts 22°
2026-04-19 23:51 34.87942 -80.92445 4030 ft 204 kts
2026-04-19 23:51 34.89353 -80.92484 4044 ft 207 kts 355°
2026-04-19 23:52 34.90813 -80.92605 4033 ft 208 kts 355°
2026-04-19 23:52 34.92255 -80.92725 4025 ft 206 kts 355°
2026-04-19 23:52 34.93682 -80.92845 4024 ft 204 kts 355°
2026-04-19 23:52 34.95089 -80.92963 4027 ft 201 kts 355°
2026-04-19 23:53 34.96502 -80.93083 4031 ft 204 kts 355°
2026-04-19 23:53 34.97927 -80.93204 4030 ft 206 kts 355°
2026-04-19 23:53 34.99353 -80.93325 4030 ft 207 kts 355°
2026-04-19 23:53 35.00784 -80.93446 4026 ft 205 kts 356°
2026-04-19 23:54 35.02208 -80.93567 4028 ft 203 kts 356°
2026-04-19 23:54 35.03653 -80.93690 3834 ft 208 kts 356°
2026-04-19 23:54 35.05081 -80.93810 3584 ft 207 kts 356°
2026-04-19 23:54 35.06500 -80.93930 3343 ft 201 kts 356°
2026-04-19 23:55 35.07852 -80.94046 3054 ft 185 kts 356°
2026-04-19 23:55 35.09085 -80.94151 2815 ft 172 kts 356°
2026-04-19 23:55 35.10197 -80.94246 2621 ft 148 kts 356°
2026-04-19 23:55 35.11189 -80.94330 2425 ft 145 kts 356°
2026-04-19 23:56 35.12196 -80.94415 2247 ft 139 kts 356°
2026-04-19 23:56 35.13111 -80.94494 2046 ft 127 kts 356°
2026-04-19 23:56 35.13981 -80.94568 1881 ft 125 kts 355°
2026-04-19 23:56 35.14830 -80.94640 1707 ft 118 kts 355°
2026-04-19 23:57 35.15642 -80.94710 1542 ft 114 kts 355°
2026-04-19 23:57 35.16451 -80.94777 1368 ft 118 kts 357°
2026-04-19 23:57 35.17260 -80.94837 1241 ft 118 kts 356°
2026-04-19 23:57 35.18072 -80.94907 1094 ft 117 kts 357°
2026-04-19 23:58 35.18885 -80.94981 953 ft 117 kts 355°
2026-04-19 23:58 35.19703 -80.95049 780 ft 118 kts 356°
2026-04-19 23:58 35.20504 -80.95121 697 ft 105 kts 356°
2026-04-19 23:58 35.21111 -80.95175 707 ft 67 kts 356°
2026-04-19 23:59 35.21402 -80.95176 712 ft 32 kts 12°
2026-04-19 23:59 35.21553 -80.95108 714 ft 14 kts 25°
2026-04-19 23:59 35.21585 -80.95076 714 ft 0 kts 55°
2026-04-20 00:01 35.21585 -80.95075 714 ft 0 kts 55°
2026-04-20 00:02 35.21596 -80.95035 713 ft 9 kts 79°
2026-04-20 00:02 35.21600 -80.94931 713 ft 14 kts 107°
2026-04-20 00:02 35.21572 -80.94810 712 ft 17 kts 84°
2026-04-20 00:02 35.21614 -80.94704 713 ft 14 kts 355°
2026-04-20 00:03 35.21717 -80.94714 716 ft 14 kts 359°
2026-04-20 00:03 35.21777 -80.94710 719 ft 7 kts 15°
2026-04-20 00:03 35.21804 -80.94645 720 ft 7 kts 96°
2026-04-20 00:03 35.21799 -80.94603 720 ft 4 kts 97°
2026-04-20 00:04 35.21798 -80.94599 720 ft 0 kts 97°